FW4179 Weather Reports


time (UTC)temp
F
wind
direction
speed
knots
gust
knots
rain 1hr
in
rain 24hr
in
rain mn
in
humidity
%
barometer
mb
20260505041553 64 136 2.6 7.0 0.00 0.00 0.00 64 1012.7
20260505040052 63 154 2.6 6.1 0.00 0.00 0.00 65 1012.7
20260505034545 64 136 1.7 6.1 0.00 0.00 0.00 65 1012.6
20260505033045 64 140 1.7 5.2 0.00 0.00 0.00 65 1012.7
20260505031553 65 149 1.7 5.2 0.00 0.00 0.00 65 1012.8
20260505030047 65 147 1.7 7.8 0.00 0.00 0.00 65 1012.7
20260505024556 65 140 3.5 7.8 0.00 0.00 0.00 66 1012.6
20260505023046 65 145 2.6 6.1 0.00 0.00 0.00 66 1012.7
20260505021547 66 134 2.6 6.1 0.00 0.00 0.00 63 1012.7
20260505020044 66 142 1.7 3.5 0.00 0.00 0.00 62 1012.6
20260505014602 67 139 1.7 4.3 0.00 0.00 0.00 61 1012.6
20260505013043 67 0 0.0 0.0 0.00 0.00 0.00 60 1012.4
20260505011556 68 0 0.0 0.0 0.00 0.00 0.00 59 1012.3
20260505010045 69 0 0.0 3.5 0.00 0.00 0.00 57 1012.2
20260505004602 69 215 1.7 3.5 0.00 0.00 0.00 56 1012.2
20260505003049 70 225 0.9 3.5 0.00 0.00 0.00 55 1012.0
20260505001550 71 225 2.6 6.1 0.00 0.00 0.00 54 1012.1
20260505000057 72 236 1.7 5.2 0.00 0.00 0.00 53 1011.9
20260504234550 73 234 2.6 7.8 0.00 0.00 0.00 52 1012.0
20260504233106 73 216 2.6 7.8 0.00 0.00 0.00 53 1011.9
20260504231548 74 235 2.6 7.0 0.00 0.00 0.00 51 1012.1
20260504230046 74 233 2.6 12.2 0.00 0.00 0.00 50 1012.1
20260504224556 75 236 2.6 6.1 0.00 0.00 0.00 50 1012.1
20260504223109 75 246 2.6 8.7 0.00 0.00 0.00 50 1012.1
20260504221544 76 209 1.7 7.8 0.00 0.00 0.00 53 1012.1
20260504220053 76 223 6.1 10.4 0.00 0.00 0.00 48 1012.0
20260504214548 76 210 3.5 7.8 0.00 0.00 0.00 49 1012.1
20260504213057 76 242 4.3 9.6 0.00 0.00 0.00 51 1011.9
20260504211546 77 202 1.7 9.6 0.00 0.00 0.00 52 1011.9
20260504210056 77 217 3.5 9.6 0.00 0.00 0.00 51 1012.1
20260504204548 77 209 5.2 12.2 0.00 0.00 0.00 49 1012.3
20260504203059 76 212 6.1 12.2 0.00 0.00 0.00 52 1012.7
20260504201549 77 207 3.5 9.6 0.00 0.00 0.00 52 1012.9
20260504200046 76 190 2.6 8.7 0.00 0.00 0.00 53 1013.0
20260504194546 76 286 4.3 8.7 0.00 0.00 0.00 51 1013.1
20260504193046 76 226 2.6 8.7 0.00 0.00 0.00 57 1013.3
20260504191557 75 219 2.6 7.8 0.00 0.00 0.00 59 1013.5
20260504190050 76 219 2.6 8.7 0.00 0.00 0.00 55 1013.7
20260504184546 76 205 3.5 7.0 0.00 0.00 0.00 55 1013.9
20260504183046 75 213 3.5 8.7 0.00 0.00 0.00 60 1014.0
20260504181557 74 191 2.6 6.1 0.00 0.00 0.00 58 1014.0
20260504180055 74 212 2.6 6.1 0.00 0.00 0.00 58 1014.1
20260504174546 73 209 1.7 8.7 0.00 0.00 0.00 62 1014.2
20260504173051 72 211 3.5 9.6 0.00 0.00 0.00 61 1014.3
20260504171555 72 235 3.5 7.0 0.00 0.00 0.00 63 1014.7
20260504081550 49 148 0.9 2.6 0.00 0.00 0.00 78 1016.1
20260504044551 52 0 0.0 3.5 0.00 0.01 0.01 72 1016.9
20260504043052 52 0 0.0 2.6 0.00 0.01 0.01 72 1016.8